CW5324 Weather Reports


time (UTC)temp
C
wind
direction
speed
KPH
gust
KPH
rain 1hr
cm
rain 24hr
cm
rain mn
cm
humidity
%
barometer
mb
20260506203541 16 0.0 0.0 0.08 0.30 0.30 92
20260506202520 16 0.0 0.0 0.08 0.30 0.30 92
20260506201520 16 0.0 0.0 0.03 0.25 0.25 92
20260506200538 16 0.0 0.0 0.08 0.25 0.25 91
20260506195520 16 0.0 0.0 0.08 0.25 0.25 91
20260506194515 16 0.0 0.0 0.08 0.23 0.23 91
20260506193520 16 0.0 0.0 0.08 0.23 0.23 90
20260506192601 17 0.0 0.0 0.10 0.23 0.23 90
20260506191520 17 0.0 0.0 0.10 0.23 0.23 89
20260506190520 17 0.0 0.0 0.05 0.18 0.18 89
20260506185520 17 0.0 0.0 0.08 0.18 0.18 88
20260506184520 17 0.0 0.0 0.08 0.15 0.15 87
20260506183515 17 0.0 0.0 0.08 0.15 0.15 86
20260506182520 18 0.0 0.0 0.10 0.13 0.13 86
20260506181520 18 0.0 0.0 0.13 0.13 0.13 85
20260506180520 18 0.0 0.0 0.13 0.13 0.13 84
20260506175521 18 0.0 0.0 0.10 0.10 0.10 82
20260506174520 18 0.0 0.0 0.08 0.08 0.08 81
20260506173515 19 0.0 0.0 0.08 0.08 0.08 78
20260506172515 20 0.0 0.0 0.03 0.03 0.03 75
20260506171520 20 0.0 0.0 0.00 0.00 0.00 74
20260506170520 20 0.0 0.0 0.00 0.00 0.00 72
20260506165520 20 0.0 0.0 0.00 0.00 0.00 69
20260506164520 21 0.0 0.0 0.00 0.00 0.00 69
20260506163521 21 0.0 0.0 0.00 0.00 0.00 67
20260506162535 21 0.0 0.0 0.00 0.00 0.00 67
20260506161515 21 0.0 0.0 0.00 0.00 0.00 68
20260506160520 20 0.0 0.0 0.00 0.00 0.00 69
20260506155600 20 0.0 0.0 0.00 0.00 0.00 70
20260506154520 20 0.0 0.0 0.00 0.00 0.00 70
20260506153518 20 0.0 0.0 0.00 0.00 0.00 70
20260506152523 20 0.0 0.0 0.00 0.00 0.00 71
20260506151522 20 0.0 0.0 0.00 0.00 0.00 72
20260506150522 19 0.0 0.0 0.00 0.00 0.00 73
20260506145523 19 0.0 0.0 0.00 0.00 0.00 73
20260506144522 19 0.0 0.0 0.00 0.00 0.00 73
20260506143522 19 0.0 0.0 0.00 0.00 0.00 73
20260506142516 19 0.0 0.0 0.00 0.00 0.00 73
20260506141522 19 0.0 0.0 0.00 0.00 0.00 73
20260506140542 19 0.0 0.0 0.00 0.00 0.00 73
20260506135522 19 0.0 0.0 0.00 0.00 0.00 74
20260506134522 18 0.0 0.0 0.00 0.00 0.00 75
20260506133522 18 0.0 0.0 0.00 0.00 0.00 75
20260506132537 18 0.0 0.0 0.00 0.00 0.00 75
20260506131517 18 0.0 0.0 0.00 0.00 0.00 76
20260506130522 18 0.0 0.0 0.00 0.00 0.00 77
20260506125522 17 0.0 0.0 0.00 0.00 0.00 77
20260506124521 17 0.0 0.0 0.00 0.00 0.00 78
20260506123522 17 0.0 0.0 0.00 0.00 0.00 79
20260506122522 17 0.0 0.0 0.00 0.00 0.00 80
20260506121517 17 0.0 0.0 0.00 0.00 0.00 80
20260506120520 17 0.0 0.0 0.00 0.00 0.00 80
20260506115642 17 0.0 0.0 0.00 0.00 0.00 80
20260506114522 16 0.0 0.0 0.00 0.00 0.00 81
20260506113603 16 0.0 0.0 0.00 0.00 0.00 81
20260506112520 16 0.0 0.0 0.00 0.00 0.00 81
20260506111522 16 0.0 0.0 0.00 0.00 0.00 81
20260506110517 16 0.0 0.0 0.00 0.00 0.00 82
20260506105522 16 0.0 0.0 0.00 0.00 0.00 82
20260506104522 16 0.0 0.0 0.00 0.00 0.00 82
20260506103522 16 0.0 0.0 0.00 0.00 0.00 82
20260506102542 16 0.0 0.0 0.00 0.00 0.00 82
20260506101522 16 0.0 0.0 0.00 0.00 0.00 82
20260506100522 16 0.0 0.0 0.00 0.00 0.00 81
20260506095517 16 0.0 0.0 0.00 0.00 0.00 81
20260506094542 16 0.0 0.0 0.00 0.00 0.00 81
20260506093521 16 0.0 0.0 0.00 0.00 0.00 80
20260506092521 16 0.0 0.0 0.00 0.00 0.00 79
20260506091604 16 0.0 0.0 0.00 0.00 0.00 79
20260506090522 16 0.0 0.0 0.00 0.00 0.00 79
20260506085517 16 0.0 0.0 0.00 0.00 0.00 78
20260506084516 16 0.0 0.0 0.00 0.00 0.00 78
20260506083602 16 0.0 0.0 0.00 0.00 0.00 78
20260506082523 16 0.0 0.0 0.00 0.00 0.00 77
20260506081522 16 0.0 0.0 0.00 0.00 0.00 77
20260506080522 16 0.0 0.0 0.00 0.00 0.00 77
20260506072522 17 0.0 0.0 0.00 0.00 0.00 74
20260506071522 17 0.0 0.0 0.00 0.00 0.00 73
20260506070522 17 0.0 0.0 0.00 0.00 0.00 72
20260506061523 18 0.0 0.0 0.00 0.00 0.00 68
20260506060522 18 0.0 0.0 0.00 0.00 0.00 67
20260506050522 18 0.0 0.0 0.00 0.00 0.00 65
20260506044602 18 0.0 0.0 0.00 0.00 0.00 65
20260506043522 18 0.0 0.0 0.00 0.00 0.00 64
20260506042522 18 0.0 0.0 0.00 0.00 0.00 64
20260506041517 18 0.0 0.0 0.00 0.00 0.00 63
20260506040522 18 0.0 0.0 0.00 0.00 0.00 63
20260506035521 18 0.0 0.0 0.00 0.00 0.00 63
20260506034521 18 0.0 0.0 0.00 0.00 0.00 62
20260506033521 18 0.0 0.0 0.00 0.00 0.00 62
20260506032516 18 0.0 0.0 0.00 0.00 0.00 61
20260506031521 19 0.0 0.0 0.00 0.00 0.00 61
20260506030521 19 0.0 0.0 0.00 0.00 0.00 60
20260506025521 19 0.0 0.0 0.00 0.00 0.00 59
20260506024522 19 0.0 0.0 0.00 0.00 0.00 58
20260506023541 20 0.0 0.0 0.00 0.00 0.00 58
20260506022521 20 0.0 0.0 0.00 0.00 0.00 57
20260506021516 20 0.0 0.0 0.00 0.00 0.00 57
20260506020541 20 0.0 0.0 0.00 0.00 0.00 57
20260506015521 20 0.0 0.0 0.00 0.00 0.00 56
20260506014522 20 0.0 0.0 0.00 0.00 0.00 56
20260506013521 21 0.0 0.0 0.00 0.00 0.00 55
20260506012521 21 0.0 0.0 0.00 0.00 0.00 55
20260506011541 21 0.0 0.0 0.00 0.00 0.00 55
20260506010536 21 0.0 0.0 0.00 0.00 0.00 54
20260506005521 21 0.0 0.0 0.00 0.00 0.00 53
20260506004521 22 0.0 0.0 0.00 0.00 0.00 52
20260506003522 22 0.0 0.0 0.00 0.00 0.00 52
20260506002522 22 0.0 0.0 0.00 0.00 0.00 51
20260506001521 22 0.0 0.0 0.00 0.00 0.00 50
20260506000516 22 0.0 0.0 0.00 0.00 0.00 49
20260505235516 23 0.0 0.0 0.00 0.00 0.00 48
20260505234541 23 0.0 0.0 0.00 0.00 0.00 48
20260505233521 23 0.0 0.0 0.00 0.00 0.00 47
20260505232542 23 0.0 0.0 0.00 0.00 0.00 46
20260505231521 24 0.0 0.0 0.00 0.00 0.00 45
20260505230521 24 0.0 0.0 0.00 0.00 0.00 45
20260505225517 24 0.0 0.0 0.00 0.00 0.00 44
20260505224522 25 0.0 0.0 0.00 0.00 0.00 44
20260505223522 25 0.0 0.0 0.00 0.00 0.00 42
20260505222521 26 0.0 0.0 0.00 0.00 0.00 41
20260505221521 26 0.0 0.0 0.00 0.00 0.00 40
20260505220521 26 0.0 0.0 0.00 0.00 0.00 41
20260505215521 26 0.0 0.0 0.00 0.00 0.00 40
20260505214516 27 0.0 0.0 0.00 0.00 0.00 39
20260505213521 27 0.0 0.0 0.00 0.00 0.00 39
20260505212521 27 0.0 0.0 0.00 0.00 0.00 39
20260505211521 27 0.0 0.0 0.00 0.00 0.00 39
20260505210522 27 0.0 0.0 0.00 0.00 0.00 39
20260505205521 27 0.0 0.0 0.00 0.00 0.00 37
20260505204521 28 0.0 0.0 0.00 0.00 0.00 36